Theta_e
336 339 339 345 344 344 346 345 345 345 344 343 340 337 335 331 331 331 345 358 356 358 359 358 354 351 348 348 346 345 341 336 333 331 330 329 328 329 328 327 325 325 325
331 332 328 336 348 346 347 348 346 344 343 343 341 339 337 335 334 332 342 353 355 355 358 358 356 353 349 347 347 346 343 339 334 333 331 330 329 329 329 327 326 326 325
335 329 331 337 349 348 346 344 346 345 341 343 341 339 338 337 336 335 332 347 352 355 356 358 357 355 353 349 347 346 344 340 336 333 332 330 329 329 329 328 327 326 325
346 338 332 342 350 350 350 346 339 326 333 339 339 338 338 338 336 335 335 335 347 349 355 356 356 356 354 353 349 346 345 342 338 336 333 331 330 330 329 327 326 326 325
341 346 349 350 348 348 347 346 341 332 337 339 339 338 338 337 335 338 335 333 337 346 347 353 354 354 353 353 352 349 346 343 339 337 333 332 331 331 330 328 327 327 326
333 331 338 348 348 345 344 344 341 342 338 338 340 339 335 338 338 336 335 336 334 343 345 347 352 352 352 353 352 352 350 345 342 338 337 336 333 332 330 329 328 328 327
332 331 330 334 345 344 344 342 342 339 338 339 332 333 334 335 336 339 336 334 334 336 346 345 347 349 350 351 350 351 352 347 344 340 338 336 335 332 330 329 328 328 327
328 333 331 331 333 340 340 342 338 337 337 338 334 325 325 328 331 334 334 336 334 335 345 347 344 346 346 347 347 348 352 352 347 345 341 337 334 331 329 329 328 326 325
328 328 330 331 334 338 337 337 337 335 334 335 335 329 321 320 322 327 332 334 333 337 339 342 343 343 336 341 343 345 348 348 348 346 342 336 332 328 327 325 324 322 321
324 324 325 328 330 331 336 335 340 336 332 332 332 337 333 327 322 321 329 334 336 336 332 334 335 336 335 337 344 344 343 342 342 337 334 327 323 322 321 320 320 319 319
320 322 323 325 325 327 331 335 336 333 334 333 331 333 329 332 333 326 324 325 331 329 332 329 330 339 333 328 329 331 330 329 325 323 320 317 315 316 317 318 318 318 318
319 320 321 323 325 326 327 329 333 334 334 332 333 334 331 327 328 324 322 324 323 326 328 329 334 330 327 326 330 327 325 321 318 316 314 312 312 312 313 314 316 317 318
313 315 317 317 318 320 322 325 327 331 334 332 332 334 331 333 330 326 323 324 322 321 322 327 327 326 328 325 326 324 322 319 317 316 314 313 312 312 312 313 314 315 315
310 312 314 315 317 318 320 325 329 328 330 331 330 332 333 333 333 330 327 323 320 319 319 319 323 323 321 320 322 323 318 320 318 316 315 313 312 311 311 311 311 311 311
310 310 310 312 315 315 316 320 322 323 326 329 331 332 331 333 332 332 329 328 324 315 315 321 317 318 317 316 319 313 314 319 319 317 314 314 313 312 310 309 309 310 309
307 309 310 310 310 313 315 316 318 321 323 327 330 329 331 333 331 331 329 329 326 324 316 320 314 313 315 316 318 310 312 317 319 317 316 314 313 312 310 309 309 309 309
307 308 309 310 312 313 315 314 315 319 321 324 328 329 331 330 330 327 327 327 322 319 310 306 310 311 312 312 315 312 311 309 310 316 317 316 313 312 311 309 308 308 308
307 308 309 309 310 312 313 313 315 318 320 322 325 326 329 328 324 323 323 318 316 313 310 303 305 306 308 311 311 307 308 310 309 314 317 315 312 311 310 309 309 308 307
306 307 308 308 310 311 313 313 313 315 317 322 325 326 324 321 319 319 317 313 310 310 309 306 308 309 308 307 306 306 307 309 311 316 315 313 312 311 310 309 308 307 306
306 307 308 309 309 311 312 314 315 315 318 318 318 318 317 319 317 317 313 309 308 305 307 305 303 303 304 306 306 305 304 306 304 309 313 311 311 311 312 311 309 308 306
305 306 308 310 311 311 312 313 315 315 315 310 310 311 311 313 314 313 309 305 301 303 301 299 301 304 303 303 303 304 302 302 300 305 303 304 307 308 308 311 310 310 306
303 304 307 312 310 312 309 309 314 311 309 305 303 303 305 307 307 308 308 308 306 304 303 303 303 303 303 303 303 302 300 297 295 301 301 301 307 305 304 304 307 304 303
300 301 303 303 304 304 304 306 307 305 303 301 301 300 300 302 303 301 303 304 305 306 306 304 302 302 301 301 299 299 299 297 297 302 301 298 304 303 302 302 302 302 301
297 298 298 300 300 301 300 300 301 300 299 299 299 299 298 299 300 300 300 300 301 303 304 308 303 301 301 300 300 299 297 298 299 303 302 294 297 298 302 301 302 301 301
295 295 296 296 296 297 298 299 299 299 298 298 299 299 299 299 298 299 300 299 299 299 301 301 302 300 300 299 299 299 296 295 293 299 302 298 296 298 298 299 300 302 301
295 295 294 295 297 295 296 296 298 297 296 296 297 297 299 298 297 298 299 299 298 297 298 298 298 299 297 298 301 299 301 298 297 297 301 298 298 295 292 297 299 299 300
Wind_Speed
5 3 5 9 7 8 8 7 9 9 10 12 12 13 12 9 11 5 3 16 24 24 25 25 25 24 24 22 21 21 21 19 17 16 14 12 10 8 7 6 6 6 7
4 4 6 6 7 8 9 10 10 9 8 9 11 12 13 10 10 9 6 11 22 23 23 25 24 25 25 24 22 22 21 20 19 17 15 14 12 10 9 8 7 8 8
6 7 6 5 9 5 7 5 5 5 7 10 12 12 11 11 7 6 5 6 11 21 23 25 25 24 24 25 25 24 23 22 22 20 18 15 14 11 9 9 8 8 9
11 8 7 9 11 4 3 3 2 5 7 5 7 9 9 8 8 8 7 6 8 9 17 24 24 23 24 25 26 26 24 23 22 20 18 17 15 13 11 10 9 9 10
8 12 13 12 7 6 5 4 4 4 11 4 4 5 5 5 6 8 11 11 9 10 9 20 24 25 26 26 25 26 24 24 22 20 20 18 17 15 12 11 11 12 12
12 9 6 8 6 4 5 3 6 7 5 6 7 7 4 5 4 6 7 9 10 11 11 12 14 15 25 24 27 26 26 25 24 23 20 20 18 16 13 12 13 14 14
9 9 6 5 7 6 7 6 5 7 5 4 1 5 4 6 6 6 6 6 7 9 12 12 10 10 12 26 26 25 25 26 26 26 23 20 18 16 13 12 14 16 14
13 12 8 7 6 4 6 8 6 4 4 5 7 0 4 5 5 6 5 6 9 9 9 10 7 8 7 5 11 23 24 23 24 24 22 20 16 15 12 12 13 15 15
11 13 12 10 8 4 5 6 6 7 9 4 7 5 2 6 1 3 6 6 7 2 4 6 9 10 2 8 5 20 24 19 20 19 13 12 11 9 8 9 13 15 15
9 11 13 12 11 7 7 7 6 6 4 9 3 7 7 4 4 4 2 3 2 4 5 3 4 3 5 9 13 11 22 9 8 7 10 6 2 5 8 10 13 14 15
8 9 11 11 11 7 8 8 8 6 6 7 4 8 5 6 8 7 9 5 3 1 1 2 3 4 8 7 7 14 15 13 15 13 9 4 0 5 8 11 13 14 15
8 8 11 9 9 9 10 7 9 9 9 6 7 8 9 5 8 4 5 6 3 3 3 3 5 6 7 8 14 15 13 14 13 10 6 3 1 5 8 11 13 14 14
9 11 12 10 11 12 13 12 10 10 8 7 8 9 6 9 5 4 4 4 4 2 2 2 2 1 4 5 9 18 17 14 13 12 12 11 7 5 7 9 11 11 12
11 13 14 15 14 13 11 12 6 7 6 6 8 8 8 10 6 5 5 4 3 1 2 3 2 2 4 6 10 17 8 12 11 11 10 8 6 8 8 8 8 8 9
11 14 15 16 15 14 13 12 9 9 7 7 7 7 7 9 5 6 4 5 6 4 5 4 2 1 3 4 8 6 5 10 10 10 10 11 11 13 9 7 8 7 8
15 16 16 16 17 14 15 11 10 11 10 8 7 7 8 7 6 6 4 3 4 6 5 2 2 3 4 3 6 4 3 4 7 13 14 13 14 13 10 9 8 8 8
15 15 15 15 15 15 14 12 11 12 12 11 8 7 10 9 8 5 3 3 2 1 4 1 2 3 3 4 3 2 2 3 4 12 15 16 15 13 10 10 9 8 7
16 16 16 16 15 15 14 16 13 9 10 10 8 8 10 5 7 4 4 5 5 2 3 4 2 2 3 3 4 2 2 4 4 9 8 12 14 11 11 10 9 8 7
17 16 16 15 16 15 14 13 15 12 11 11 11 9 7 5 5 7 6 7 4 2 4 4 4 2 2 3 2 2 3 4 4 12 9 11 11 13 11 12 10 9 6
15 15 15 16 16 15 14 12 12 9 9 3 3 6 5 6 11 10 8 8 4 5 6 7 6 3 4 3 4 2 3 2 3 3 3 6 9 14 13 11 10 8 7
12 14 16 17 12 11 9 11 10 9 5 8 9 10 12 17 19 11 8 7 8 8 6 6 5 4 3 3 3 3 3 3 3 1 2 2 3 2 1 4 5 8 7
11 11 12 4 6 7 12 15 10 9 11 12 13 12 13 22 23 24 25 22 12 9 9 7 4 5 3 3 0 2 3 2 3 2 5 4 4 5 4 4 9 7 4
10 11 11 10 8 7 7 18 21 12 12 11 12 11 12 10 14 14 20 20 18 18 12 6 5 3 2 3 0 2 2 2 2 5 2 1 3 3 3 5 7 4 1
12 11 13 12 13 13 18 24 26 17 15 15 12 12 12 12 11 13 13 12 10 7 5 4 4 4 3 3 2 1 2 3 2 3 4 2 2 1 3 4 5 3 6
11 13 13 15 15 15 18 17 22 16 16 15 12 12 11 13 14 11 12 11 5 1 3 7 7 6 5 5 4 4 4 3 2 1 3 1 2 3 2 3 3 6 8
11 11 13 14 22 16 21 19 15 13 16 11 11 11 15 9 10 9 7 4 5 2 1 4 2 2 2 4 3 3 3 3 2 2 3 3 1 2 4 2 3 4 3
Wind_Direction
229 220 202 262 205 194 212 216 233 220 222 226 225 226 233 224 225 229 223 192 188 195 197 197 198 192 188 188 186 187 192 195 197 200 204 207 218 230 244 262 273 283 294
241 219 246 236 241 206 209 211 216 222 226 230 232 231 236 228 220 213 191 193 196 199 200 199 199 197 193 193 192 189 191 195 200 202 207 213 221 232 242 257 266 278 286
236 214 232 273 262 236 226 193 234 264 250 227 229 228 232 236 232 232 205 182 201 206 203 203 202 197 197 197 199 193 191 195 200 203 206 214 224 231 242 257 263 274 279
223 239 233 240 234 211 187 208 222 228 220 211 221 228 220 217 224 225 229 192 187 200 211 209 205 200 201 202 201 198 195 195 200 202 206 212 225 235 241 254 265 272 278
238 225 225 233 216 210 205 172 199 230 257 250 243 243 246 238 222 224 225 234 194 197 199 210 209 205 204 205 201 202 199 196 201 202 208 213 220 232 241 251 262 268 275
310 314 319 266 231 255 261 228 196 218 220 232 245 256 250 254 254 237 227 234 235 200 197 200 204 209 210 208 208 201 201 197 196 206 209 214 220 225 237 255 265 271 275
313 302 295 293 287 233 237 229 216 219 238 231 253 265 281 259 249 235 237 241 236 224 198 201 198 203 208 212 212 210 206 202 202 206 210 211 215 226 238 257 269 280 287
337 334 317 293 283 272 250 239 226 242 245 209 224 215 287 317 269 243 226 233 240 249 202 200 212 224 228 220 227 230 215 206 208 212 211 208 214 227 247 269 285 289 291
328 328 320 310 307 300 273 257 236 220 251 268 211 182 217 226 9 274 250 254 258 80 82 157 142 136 317 273 258 247 238 207 210 225 223 199 208 238 268 284 287 289 289
305 311 305 308 310 296 284 271 266 238 232 254 273 221 231 179 209 299 296 266 191 177 148 158 114 155 192 228 228 218 236 199 201 119 116 145 182 261 283 288 287 290 288
284 291 295 297 292 281 269 253 260 260 247 244 223 255 238 243 243 232 264 277 345 26 165 171 153 100 72 66 49 72 83 103 110 116 123 126 188 301 299 292 290 286 286
303 297 291 303 330 328 332 311 282 249 247 240 240 246 243 218 234 186 231 263 226 340 32 344 126 123 127 133 117 139 149 142 132 126 118 123 256 282 299 298 288 287 291
300 301 302 303 304 303 303 304 297 290 258 244 239 241 241 239 237 202 195 257 206 165 77 359 13 93 155 154 140 146 164 166 158 157 174 182 203 262 277 287 286 289 295
295 292 295 291 287 288 285 287 289 287 274 248 244 235 242 244 237 221 218 184 279 171 144 182 213 163 144 147 163 162 168 178 163 182 187 198 222 244 253 275 280 284 293
293 290 286 284 285 287 288 290 283 291 288 271 254 247 235 251 232 239 198 210 216 227 222 200 152 118 122 130 163 160 170 161 186 192 206 208 220 233 240 257 259 272 280
286 283 280 280 278 270 270 268 277 275 273 277 256 235 251 256 241 239 217 209 189 212 186 151 187 157 152 133 168 144 158 213 189 207 220 205 214 223 231 243 247 256 261
280 277 276 275 271 268 260 261 265 269 267 268 262 240 249 249 248 240 201 133 130 166 136 244 104 126 111 130 128 130 143 217 241 240 238 218 206 217 220 231 237 246 257
284 280 272 267 266 265 264 264 263 270 280 275 262 241 249 242 243 163 115 118 112 30 127 127 88 97 110 126 147 175 256 253 251 256 236 177 202 216 218 219 220 232 242
283 279 272 266 261 255 254 255 260 262 269 271 265 250 246 212 134 118 129 104 100 115 95 121 116 106 96 102 71 341 299 283 279 262 204 190 214 230 219 217 210 212 221
284 279 270 260 250 247 247 249 253 249 259 283 54 65 62 114 121 119 110 105 130 90 96 104 96 107 106 60 49 44 325 333 307 339 174 196 226 243 232 219 205 200 209
298 290 281 267 236 236 239 239 239 246 159 101 80 77 78 89 89 99 109 102 93 87 75 68 64 55 50 65 50 0 335 297 303 3 335 340 310 51 23 232 192 211 181
316 312 312 228 224 234 232 228 226 117 106 108 95 86 82 84 82 86 84 77 77 99 91 89 81 84 51 59 71 228 242 353 341 332 16 330 17 59 43 49 75 107 161
345 4 15 41 43 27 110 110 110 98 96 94 96 95 90 83 89 86 79 79 68 65 78 92 95 88 164 198 171 324 5 17 283 296 93 319 42 80 98 89 90 85 44
20 23 29 37 54 44 67 97 93 92 87 80 79 84 88 89 83 90 89 80 70 61 69 103 148 160 118 88 95 216 267 289 307 7 20 51 352 327 153 172 140 198 241
37 38 40 44 50 46 48 73 93 91 86 79 73 73 79 79 62 73 92 93 64 36 232 97 90 97 90 70 50 56 15 34 331 41 354 94 353 314 320 231 239 315 303
44 47 47 50 54 55 48 56 79 92 89 85 72 66 65 78 76 81 83 75 112 241 176 76 40 325 332 311 284 190 172 51 341 353 327 12 358 11 334 286 293 301 295